Weather History for KFBL - January, 2013

Change the Weather History Date:

Tuesday, January 8, 2013

  Actual Average Record
Temperature  
Mean Temperature 22 °F -  
Max Temperature 33 °F 19 °F 53 °F (2003)
Min Temperature 10 °F -3 °F -27 °F (1966)
Degree Days  
Heating Degree Days 44    
Moisture  
Dew Point 22 °F    
Average Humidity 91    
Maximum Humidity 100    
Minimum Humidity 75    
Precipitation  
Precipitation 0.00 in - - ()
Sea Level Pressure  
Sea Level Pressure 29.88 in    
Wind  
Wind Speed 5 mph (South)    
Max Wind Speed 15 mph    
Max Gust Speed 21 mph    
Visibility 8 miles    
Events      
Averages and records for this station are not official NWS values.
T = Trace of Precipitation, MM = Missing Value Source: NWS Daily Summary

Daily Weather History Graph

Daily Weather History Graph

Search for Another Location

Airport or City:

Trip Planner

Search our weather history database for the weather conditions in past years. The results will help you decide how hot, cold, wet, or windy it might be!

Date:

Astronomy

Jan. 08, 2013 Rise Set
Actual Time 7:48 AM CST 4:52 PM CST
Civil Twilight 7:15 AM CST 5:24 PM CST
Nautical Twilight 6:39 AM CST 6:01 PM CST
Astronomical Twilight 6:04 AM CST 6:36 PM CST
Moon 4:21 AM CST (1/8) 1:55 PM CST (1/8)
Length of Visible Light 10h 09m
Length of Day
9h 03m
Waning Crescent, 13% of the Moon is Illuminated
Jan 8
Waning Crescent
Jan 11
New
Jan 18
First Quarter
Jan 26
Full
Feb 3
Last Quarter

Hourly Weather History & Observations

Time (CST) Temp. Windchill Dew Point Humidity Pressure Visibility Wind Dir Wind Speed Gust Speed Precip Events Conditions
12:14 AM 17.6 °F 12.3 °F 17.6 °F 100% 29.97 in 7.0 mi South 3.5 mph - N/A   Clear
12:34 AM 19.4 °F 14.3 °F 19.4 °F 100% 29.97 in 7.0 mi South 3.5 mph - N/A   Clear
12:54 AM 15.8 °F - 14.0 °F 93% 29.97 in 5.0 mi Calm Calm - N/A   Clear
1:14 AM 15.8 °F - 15.8 °F 100% 29.97 in 4.0 mi Calm Calm - N/A   Clear
1:34 AM 12.2 °F - 12.2 °F 100% 29.98 in 4.0 mi Calm Calm - N/A   Clear
1:54 AM 12.2 °F - 12.2 °F 100% 29.98 in 4.0 mi Calm Calm - N/A   Clear
2:14 AM 12.2 °F - 12.2 °F 100% 29.98 in 5.0 mi Calm Calm - N/A   Clear
2:34 AM 12.2 °F - 12.2 °F 100% 29.98 in 3.0 mi Calm Calm - N/A   Clear
2:54 AM 12.2 °F - 12.2 °F 100% 29.97 in 5.0 mi Calm Calm - N/A   Clear
3:14 AM 14.0 °F - 12.2 °F 93% 29.97 in 7.0 mi Calm Calm - N/A   Clear
3:34 AM 12.2 °F - 10.4 °F 92% 29.96 in 5.0 mi Calm Calm - N/A   Clear
3:55 AM 10.4 °F - 10.4 °F 100% 29.96 in 5.0 mi Calm Calm - N/A   Clear
4:14 AM 10.4 °F 4.0 °F 10.4 °F 100% 29.95 in 7.0 mi SSE 3.5 mph - N/A   Clear
4:34 AM 10.4 °F - 10.4 °F 100% 29.95 in 7.0 mi Calm Calm - N/A   Clear
4:54 AM 10.4 °F - 8.6 °F 92% 29.95 in 7.0 mi Calm Calm - N/A   Clear
5:14 AM 10.4 °F 4.0 °F 10.4 °F 100% 29.94 in 7.0 mi SSE 3.5 mph - N/A   Clear
5:34 AM 10.4 °F 4.0 °F 10.4 °F 100% 29.94 in 7.0 mi SSE 3.5 mph - N/A   Clear
5:54 AM 15.8 °F - 14.0 °F 93% 29.94 in 7.0 mi Calm Calm - N/A   Clear
6:14 AM 14.0 °F 8.2 °F 14.0 °F 100% 29.94 in 7.0 mi SSE 3.5 mph - N/A   Clear
6:34 AM 14.0 °F - 12.2 °F 93% 29.94 in 10.0 mi Calm Calm - N/A   Clear
6:55 AM 15.8 °F - 15.8 °F 100% 29.94 in 10.0 mi Calm Calm - N/A   Clear
7:14 AM 15.8 °F - 15.8 °F 100% 29.94 in 7.0 mi Calm Calm - N/A   Clear
7:34 AM 15.8 °F - 14.0 °F 93% 29.94 in 7.0 mi Calm Calm - N/A   Clear
7:55 AM 15.8 °F 10.2 °F 14.0 °F 93% 29.93 in 5.0 mi SE 3.5 mph - N/A   Clear
8:14 AM 17.6 °F - 17.6 °F 100% 29.94 in 5.0 mi Calm Calm - N/A   Clear
8:34 AM 15.8 °F 10.2 °F 14.0 °F 93% 29.93 in 5.0 mi SE 3.5 mph - N/A   Clear
8:55 AM 19.4 °F 14.3 °F 19.4 °F 100% 29.93 in 7.0 mi SSE 3.5 mph - N/A   Clear
9:14 AM 17.6 °F 10.7 °F 17.6 °F 100% 29.92 in 10.0 mi SE 4.6 mph - N/A   Clear
9:34 AM 21.2 °F 14.9 °F 21.2 °F 100% 29.91 in 10.0 mi SE 4.6 mph - N/A   Clear
9:55 AM 23.0 °F - 23.0 °F 100% 29.91 in 10.0 mi Calm Calm - N/A   Clear
10:14 AM 24.8 °F 16.9 °F 24.8 °F 100% 29.90 in 10.0 mi SSE 6.9 mph - N/A   Clear
10:34 AM 26.6 °F 18.2 °F 24.8 °F 93% 29.89 in 10.0 mi SE 8.1 mph - N/A   Clear
10:55 AM 28.4 °F 20.4 °F 26.6 °F 93% 29.88 in 10.0 mi SSE 8.1 mph - N/A   Clear
11:14 AM 30.2 °F 21.3 °F 26.6 °F 86% 29.87 in 10.0 mi SSE 10.4 mph - N/A   Clear
11:55 AM 33.8 °F 25.3 °F 28.4 °F 81% 29.83 in 10.0 mi SSE 11.5 mph 19.6 mph N/A   Clear
12:14 PM 33.8 °F 24.3 °F 26.6 °F 75% 29.83 in 10.0 mi South 13.8 mph 20.7 mph N/A   Clear
12:34 PM 33.8 °F 23.9 °F 26.6 °F 75% 29.82 in 10.0 mi South 15.0 mph 18.4 mph N/A   Clear
12:55 PM 32.0 °F 22.1 °F 26.6 °F 80% 29.80 in 10.0 mi SSE 13.8 mph - N/A   Clear
1:14 PM 32.0 °F 22.5 °F 26.6 °F 80% 29.80 in 10.0 mi SSE 12.7 mph - N/A   Clear
1:54 PM 33.8 °F 25.8 °F 28.4 °F 81% 29.79 in 10.0 mi South 10.4 mph - N/A   Clear
2:14 PM 33.8 °F 25.3 °F 28.4 °F 81% 29.79 in 10.0 mi South 11.5 mph - N/A   Clear
2:34 PM 33.8 °F 24.8 °F 28.4 °F 81% 29.79 in 10.0 mi South 12.7 mph 16.1 mph N/A   Clear
2:54 PM 33.8 °F 25.8 °F 28.4 °F 81% 29.79 in 10.0 mi SSE 10.4 mph 20.7 mph N/A   Clear
3:14 PM 33.8 °F 23.9 °F 28.4 °F 81% 29.77 in 10.0 mi SSE 15.0 mph - N/A   Clear
3:34 PM 33.8 °F 24.8 °F 30.2 °F 87% 29.77 in 10.0 mi SSE 12.7 mph 18.4 mph N/A   Clear
3:54 PM 33.8 °F 26.4 °F 30.2 °F 87% 29.79 in 10.0 mi South 9.2 mph - N/A   Clear
4:14 PM 33.8 °F 26.4 °F 30.2 °F 87% 29.78 in 10.0 mi South 9.2 mph - N/A   Clear
4:34 PM 33.8 °F 25.8 °F 30.2 °F 87% 29.77 in 10.0 mi SSE 10.4 mph - N/A   Clear
4:54 PM 33.8 °F 26.4 °F 30.2 °F 87% 29.78 in 10.0 mi South 9.2 mph - N/A   Clear
5:14 PM 33.8 °F 25.3 °F 30.2 °F 87% 29.78 in 10.0 mi South 11.5 mph 16.1 mph N/A   Clear
5:34 PM 33.8 °F 26.4 °F 30.2 °F 87% 29.77 in 10.0 mi South 9.2 mph - N/A   Clear
5:54 PM 33.8 °F 25.8 °F 30.2 °F 87% 29.78 in 10.0 mi SSW 10.4 mph 18.4 mph N/A   Scattered Clouds
6:14 PM 33.8 °F 25.3 °F 30.2 °F 87% 29.78 in 10.0 mi SSW 11.5 mph 17.3 mph N/A   Scattered Clouds
6:34 PM 33.8 °F 23.9 °F 30.2 °F 87% 29.79 in 10.0 mi SSW 15.0 mph 20.7 mph N/A   Scattered Clouds
6:54 PM 33.8 °F 24.3 °F 30.2 °F 87% 29.79 in 10.0 mi SSW 13.8 mph 19.6 mph N/A   Scattered Clouds
7:14 PM 32.0 °F 22.1 °F 28.4 °F 87% 29.80 in 10.0 mi SSW 13.8 mph 18.4 mph N/A   Clear
7:34 PM 30.2 °F 19.3 °F 28.4 °F 93% 29.81 in 10.0 mi SW 15.0 mph 19.6 mph N/A   Clear
7:54 PM 30.2 °F 20.8 °F 26.6 °F 86% 29.82 in 10.0 mi SW 11.5 mph - N/A   Clear
8:14 PM 28.4 °F 18.5 °F 26.6 °F 93% 29.83 in 7.0 mi SW 11.5 mph - N/A   Clear
8:34 PM 28.4 °F 18.0 °F 24.8 °F 86% 29.84 in 7.0 mi SW 12.7 mph - N/A   Clear
8:54 PM 26.6 °F 16.8 °F 24.8 °F 93% 29.84 in 7.0 mi SW 10.4 mph - N/A   Clear
9:14 PM 28.4 °F 19.7 °F 24.8 °F 86% 29.85 in 7.0 mi SW 9.2 mph - N/A   Mostly Cloudy
9:34 PM 28.4 °F 19.7 °F 26.6 °F 93% 29.86 in 7.0 mi SSW 9.2 mph - N/A   Overcast
9:54 PM 30.2 °F 22.6 °F 26.6 °F 86% 29.87 in 10.0 mi SW 8.1 mph - N/A   Overcast
10:14 PM 30.2 °F 22.6 °F 26.6 °F 86% 29.88 in 10.0 mi SW 8.1 mph - N/A   Scattered Clouds
10:34 PM 30.2 °F 21.9 °F 26.6 °F 86% 29.90 in 10.0 mi SW 9.2 mph - N/A   Clear
11:54 PM 28.4 °F 20.4 °F 26.6 °F 93% 29.94 in 10.0 mi SSW 8.1 mph - N/A   Clear